World > North America > United States > Alabama

Concord, Alabama Regional Weather

Lat: 33.47N, Lon: 87.03W
Wx Zone: ALZ024Web Search
Concord Weather Warning NWS WEATHER ALERT FOR THE CONCORD, AL AREA - Issued: 342 AM CDT Mon Apr 12 2021 Concord Weather Warning  

Helpful Tip: Type the letters wx in the search engine next time you need to find us.

Feedback


°F Click to change Concord hourly weather to Imperial units.Click to change Concord hourly weather to Metric units. °C
Concord Weather Map
UTC Time: 4/12/2021, 16:58
Your Time:

Concord, AL Regional Weather

Expires:202104121700;;442859
ASUS44 KBMX 121610
RWRAL 
             
ALABAMA REGIONAL WEATHER ROUNDUP
NATIONAL WEATHER SERVICE BIRMINGHAM AL
1100 AM CDT MON APR 12 2021

NOTE: "FAIR" INDICATES FEW OR NO CLOUDS BELOW 12,000 FEET
WITH NO SIGNIFICANT WEATHER AND/OR OBSTRUCTIONS TO VISIBILITY.

THE REMARK "TC" DENOTES TEMPERATURE IN DEGREES CELSIUS.


ALZ015-024>026-033>036-041>044-121700-
CENTRAL ALABAMA
  
CITY           SKY/WX    TMP DP  RH WIND       PRES   REMARKS
BIRMINGHAM     SUNNY     75  46  35 W10       29.94S                  
MONTGOMERY     SUNNY     76  49  38 W8        29.94R                  
SHELBY CO ARPT SUNNY     73  48  41 NW9       29.93R                  
MAXWELL AFB    SUNNY     74  54  49 SW7       29.92R                  
GREENVILLE     FAIR      76  44  32 VRB5      29.93                   
SELMA          FAIR      73  50  43 VRB5      29.93S                  
PRATTVILLE     FAIR      75  50  41 W8        29.93R                  
BESSEMER       FAIR      74  48  39 NW10      29.94R                  
TALLADEGA      FAIR      73  50  43 W6        29.92S                  
PELL CITY      SUNNY     77  46  33 W9        29.92S                  
SYLACAUGA      FAIR      72  50  45 NW5       29.93S                  
$$
 

SKY/WX - Weather  TMP - Temperature  DP - Dew Point  RH - Relative Humidity
WIND - Wind Direction/Speed PRES - Barometric Pressure VSB - Visibility
WCI - Wind Chill Index E13G22 Wind - East Wind 13 mph/Gusts of 22 mph